Current Weather Network in the world 
cooperate with our weather  network
  
 
country list  
Weather now
09-07-20  16:10
Molinella (BO)  (Italy)  
31.1  C.     .;

 

If you want to participate in our meteorological network, fill in form data, and send us an  e_mail and we will activate your weather station in your country. You would to send your weather reporting, one or more times a day, through our website .. for examples insert
       
manual meteorological reports today      
Weather reporting today :
Romania: stazione meteo: Amara
14:10
PAESE CITTA'DATAORAT C.(m)VENTO (Km/h)PAPREC.STATO
AustriaInnsbruck09-07-2012:20 UTC283.09 E1016
AustriaLinz09-07-2012:20 UTC265.14 NW1017
AustriaVienna/Wien09-07-2012:20 UTC283.09 1017
AustriaSalisburgo/Salzsbu09-07-2012:20 UTC284.12 NNE1018
Belarus/BielorussiaMinsk09-07-2012:00 UTC195 WSW1016
Belarus/BielorussiaRiga09-07-2012:20 UTC192.06 SW1013
BulgariaSofia09-07-2012:30 UTC264.12 SE1020
Belgium/BelgioBruxelles09-07-2012:20 UTC216.69 WSW1014
Croatia/CroaziaZagabria/Zagreb09-07-2012:00 UTC282.57 1018
Croatia/CroaziaDubrovnik09-07-2012:00 UTC274.12 SSW1017
Croatia/CroaziaSpalato/Split09-07-2012:00 UTC305.14 SW1016
Croatia/CroaziaPula09-07-2012:00 UTC303.6 WSW1017
Croatia/CroaziaZara/Zadar09-07-2012:00 UTC315.14 W1017
Croazia/CroatiaFiume/Rijeka09-07-2012:00 UTC312.57 WNW1017
Czech RepublicPraga09-07-2012:00 UTC214.12 SSW1016
SlovakiaBratislava09-07-2012:30 UTC272.57 SSW1017
BosniaSarajevo09-07-2012:00 UTC281.54 1019
Denmark/DanimarcaAlborg09-07-2012:20 UTC164.12 WNW1011
Denmark/DanimarcaEsbjerg09-07-2012:20 UTC162.06 WNW1012
Denmark/DanimarcaCopenaghen/Koeben.09-07-2012:20 UTC165.66 S1013
Finland/FinlandiaHelsinky09-07-2015:50 UTC-23.09 NE1021
Finland/FinlandiaOulu09-07-2012:20 UTC131.03 1006
France/FranciaParigi/Paris09-07-2012:00 UTC275.66 WSW1016
France/FranciaNizza/Nices09-07-2012:00 UTC272.57 SSE1017
France/FranciaTrasburgo09-07-2012:00 UTC313.6 W1015
France/FranciaMontepellier09-07-2012:00 UTC294.63 SSW1017
France/FranciaLione/Lyon09-07-2012:00 UTC322.57 S1016
France/FranciaLilla09-07-2012:00 UTC226.69 WSW1014
France/FranciaBrest09-07-2012:00 UTC178.75 SW1017
France/FranciaBordeaux09-07-2012:00 UTC322.57 1017
France/FranciaMarsiglia/Marsei09-07-2012:00 UTC293.6 WSW1017
Germany/GermaniaAmburgo-fink09-07-2012:20 UTC134.12 ENE1010
Germany/GermaniaAmburgo-fuhl09-07-2012:20 UTC133.09 ENE1010pioggia
Germany/GermaniaBerlin-sch09-07-2012:20 UTC163.09 S1013pioggia
Germany/GermaniaBerlino-tegel09-07-2012:20 UTC173.09 S1012pioggia
Germany/GermaniaMonaco09-07-2012:20 UTC264.63 WNW1017
Germany/GermaniaNonimberga09-07-2012:20 UTC274.63 WSW1015
Germany/GermaniaFrancoforte09-07-2012:20 UTC285.14 WSW1014
Germany/GermaniaStoccarda09-07-2012:20 UTC284.12 W1016
Germany/GermaniaHannover09-07-2012:20 UTC197.2 WSW1011
Germany/GermaniaDusseldorf09-07-2012:20 UTC228.75 WSW1013
ISReykjavik09-07-2012:00 UTC114.12 NW1014
Netherlands/Paesi baAmsterdam09-07-2012:25 UTC177.2 WSW1011
Netherlands/Paesi BaRotterdam09-07-2012:25 UTC177.72 WSW1012
Netherlands/Paesi BaGroninga/Groningen09-07-2012:25 UTC144.63 ENE1011pioggia
Netherlands/Paesi baMaastrich09-07-2012:25 UTC226.69 WSW1014
Norway-NorvegiaOslo09-07-2012:20 UTC163.6 NNW1010
Norway-NorvegiaTrondheim09-07-2012:20 UTC137.2 WNW1011
Norway-NorvegiaBergen09-07-2012:20 UTC144.63 NNW1014
Norway-NorvegiaBodo09-07-2012:20 UTC134.63 W1008
Poland/PoloniaVarsavia/Warsawa09-07-2012:00 UTC212.57 SW1017
Portugal-PortogalloLisbona/Lisboa09-07-2012:00 UTC243.09 NW1017
Portugal-PortogalloFaro-airport09-07-2012:00 UTC224.12 SSW1016
Portugal-PortogalloPorto Santo09-07-2012:00 UTC236.69 N1022
Portugal-PortogalloPorto/Pedras Rubra09-07-2012:00 UTC202.06 WNW1017
RUSMosca09-07-2012:00 UTC201013
Russian-RussiaSt.Peterburg09-07-2012:00 UTC184 W1010
RusVladivostok09-07-2012:00 UTC203 E1006
RomaniaBucarest09-07-2012:00 UTC293.6 NNW1019
Spain/SpagnaMadrid/Barajas09-07-2012:00 UTC331.54 SE1017
Spain/SpagnaMadrid/Cuatro09-07-2012:00 UTC332.57 1018
Spain/SpagnaBarcellona09-07-2012:00 UTC274.12 SSE1017
Spain/SpagnaLa Couruna09-07-2012:00 UTC216.17 N1020
Spain/SpagnaAlmeria09-07-2012:00 UTC284.63 SSW1015
Spain/SpagnaValencia09-07-2012:00 UTC324.63 E1016
SpainIbiza09-07-2012:00 UTC288.23 ENE1015
Sweden-SveziaStockholm/Stoccolm09-07-2012:20 UTC194.63 WNW1009
Sweden-SveziaGoteborg09-07-2010:20 UTC-20 N1012
Sweden-SveziaMalmo09-07-2012:20 UTC164.63 SW1013
Sweden-SveziaKiruna09-07-2012:20 UTC152.06 N1005
Sweden-SveziaSundsvall09-07-2012:20 UTC163.6 N1007
Sweden-SveziaJongkoping09-07-2012:20 UTC195.14 SSW1010
Sweden-SveziaJongkoping09-07-2012:20 UTC195.14 SSW1010
Sweden-SveziaJongkoping09-07-2012:20 UTC195.14 SSW1010
Sweden-SveziaJongkoping09-07-2012:20 UTC195.14 SSW1010
Sweden-SveziaJongkoping09-07-2012:20 UTC195.14 SSW1010
Sweden-SveziaJongkoping09-07-2012:20 UTC195.14 SSW1010
Ukraine/UcrainaLvov/l'viv09-07-2012:00 UTC194 WSW1020
Ukraine/UcrainaKijev09-07-2012:00 UTC195 WNW1019
United KingdomBelfast-airport09-07-2012:20 UTC155.14 NNW1015
United KingdomBirmingham09-07-2012:20 UTC145.14 N1011
United KingdomEdimburgo/Edimburg09-07-2012:20 UTC172.57 NE1014
United KingdomLeeds09-07-2011:50 UTC124.63 NE1013
United KingdomLiverpool09-07-2012:20 UTC155.66 NE1013
United KingdomBristol09-07-2012:20 UTC175.66 WSW1012
United KingdomPlymouth09-07-2015:20 UTC66.17 NW1018
GBLondra09-07-2012:20 UTC204.63 SW1012
UngheriaBudapest09-07-2012:30 UTC283.6 W1018
United KingdomManchester-airport09-07-2012:20 UTC142.57 1013
yugoslaviaBelgrado/Beograd09-07-2012:00 UTC292.57 SE1019
09-07-2012:20 UTC344.12 NNW1015
 

 .

. .
. . . .

informazioni e contatti

www.meteorete.it
by.A.Santagostini C.2001-2016
P.I.05250380960

Partecipa alla rete meteorologica

  
 Cerca Meteo  
Stazioni meteo AM
Satellite e Radar
Rete in GooGle Maps
stazioni meteorete
Schermo solare Meteorete e Davis
stazioni automatiche
stazioni AM
rete internazionale
stazioni estere
archivio articoli
citta fredde

i nostri amici
negozio meteorete
dati storici stazioni
clima e riscaldamento globale
progetto meteo nelle scuole
temperatura Media in Italia 1951-2000
galleria di immagini
noleggio webcam
servizi meteo gratuiti
meteorologia per le scuole elementari